Calgary Springbank,

7:19 AM MDT on May 24, 2017 (GMT -0600)
Calgary Springbank

Weather History for CYBW - March, 2013

Change the Weather History Date:

Friday, March 8, 2013

  Actual Average Record
Temperature  
Mean Temperature 19 °F -  
Max Temperature 38 °F 37 °F 55 °F (2004)
Min Temperature 0 °F 16 °F -31 °F (2002)
Degree Days  
Heating Degree Days 46    
Moisture  
Dew Point 11 °F    
Average Humidity 75    
Maximum Humidity 93    
Minimum Humidity 47    
Precipitation  
Precipitation 0.00 in - - ()
Sea Level Pressure  
Sea Level Pressure 30.10 in    
Wind  
Wind Speed 5 mph ()    
Max Wind Speed 9 mph    
Max Gust Speed -    
Visibility 5.9 miles    
Events Fog    
Averages and records for this station are not official NWS values.
T = Trace of Precipitation, MM = Missing Value Source: Averaged Metar Reports

Daily Weather History Graph

Daily Weather History Graph

Search for Another Location

Airport or City:

Trip Planner

Search our weather history database for the weather conditions in past years. The results will help you decide how hot, cold, wet, or windy it might be!

Date:

Astronomy

Mar. 08, 2013 Rise Set
Actual Time 7:06 AM MST 6:31 PM MST
Civil Twilight 6:33 AM MST 7:04 PM MST
Nautical Twilight 5:54 AM MST 7:42 PM MST
Astronomical Twilight 5:15 AM MST 8:21 PM MST
Moon 5:11 AM MST (3/8) 3:15 PM MST (3/8)
Length of Visible Light 12h 30m
Length of Day
11h 24m
Waning Crescent, 11% of the Moon is Illuminated
Mar 8
Waning Crescent
Mar 11
New
Mar 19
First Quarter
Mar 27
Full
Apr 2
Last Quarter

Hourly Weather History & Observations

Time (MST) Temp. Windchill Dew Point Humidity Pressure Visibility Wind Dir Wind Speed Gust Speed Precip Events Conditions
5:00 AM 6 °F - 4 °F 84% 30.13 in 0 mi WSW 4.6 mph - - Fog Heavy Fog
5:00 AM 6.8 °F -3.5 °F 3.2 °F 85% 30.13 in 0.4 mi West 5.8 mph - N/A Fog Light Freezing Fog
6:00 AM 1.4 °F -11.3 °F -2.2 °F 85% 30.16 in 0.2 mi NW 6.9 mph - N/A Fog Light Freezing Fog
7:00 AM 3.2 °F -7.8 °F -0.4 °F 85% 30.15 in 0.1 mi WNW 5.8 mph - N/A Fog Light Freezing Fog
7:35 AM 3.2 °F -6.2 °F -0.4 °F 85% 30.15 in 0.1 mi NW 4.6 mph - N/A Fog Light Freezing Fog
8:00 AM 3.2 °F -4.2 °F -0.4 °F 85% 30.15 in 0.2 mi NW 3.5 mph - N/A Fog Light Freezing Fog
8:05 AM 3.2 °F -6.2 °F -0.4 °F 85% 30.15 in 1.0 mi NNW 4.6 mph - N/A   Mostly Cloudy
8:21 AM 3.2 °F -6.2 °F -0.4 °F 85% 30.14 in 4.0 mi NW 4.6 mph - N/A   Mostly Cloudy
9:00 AM 6.8 °F -2.0 °F 3.2 °F 85% 30.14 in 20.0 mi WNW 4.6 mph - N/A   Mostly Cloudy
10:00 AM 12.2 °F 0.7 °F 8.6 °F 85% 30.12 in 25.0 mi NNW 8.1 mph - N/A   Scattered Clouds
11:00 AM 18 °F - 15 °F 85% 30.09 in 28 mi NW 4.6 mph - -   Partly Cloudy
11:00 AM 17.6 °F 10.7 °F 15.8 °F 93% 30.09 in 30.0 mi NW 4.6 mph - N/A   Partly Cloudy
12:00 PM 24.8 °F 20.5 °F 19.4 °F 80% 30.07 in 30.0 mi NW 3.5 mph - N/A   Partly Cloudy
1:00 PM 32.0 °F - 19.4 °F 60% 30.04 in 30.0 mi Calm Calm - N/A   Scattered Clouds
2:00 PM 37.4 °F 33.8 °F 21.2 °F 52% 30.02 in 30.0 mi ENE 4.6 mph - N/A   Scattered Clouds
3:00 PM 37.4 °F 32.1 °F 21.2 °F 52% 30.01 in 30.0 mi ENE 6.9 mph - N/A   Mostly Cloudy
4:00 PM 35.6 °F 29.9 °F 21.2 °F 56% 30.02 in 30.0 mi South 6.9 mph - N/A   Scattered Clouds
5:00 PM 33 °F - 20 °F 47% 30.04 in 28 mi SSE 9.2 mph - -   Scattered Clouds
5:00 PM 33.8 °F 26.4 °F 19.4 °F 56% 30.04 in 30.0 mi SSE 9.2 mph - N/A   Scattered Clouds
6:00 PM 28.4 °F 21.2 °F 17.6 °F 64% 30.07 in 25.0 mi SSE 6.9 mph - N/A   Partly Cloudy
7:00 PM 24.8 °F 15.3 °F 15.8 °F 69% 30.09 in 30.0 mi SSE 9.2 mph - N/A   Partly Cloudy
8:00 PM 19.4 °F 12.8 °F 14.0 °F 80% 30.12 in 15.0 mi SSW 4.6 mph - N/A   Clear
9:00 PM 14.0 °F - 10.4 °F 86% 30.14 in 15.0 mi WSW 2.3 mph - N/A   Clear
10:00 PM 17.6 °F 7.3 °F 8.6 °F 68% 30.13 in 15.0 mi WNW 8.1 mph - N/A   Clear